Location: Czu?�w
(50.1404°N, 18.9919°E)
Time: 12:06:21
(UTC+00:00)

NOSS 3-4 (A) - Pass Details

Date: 27 October 2020
Orbit: 885 x 1327 km, 63.4° (Epoch: 06 November)

Event Time Altitude Azimuth Distance (km) Brightness Sun altitude
Rises 17:32:18 0° 315° (NW) 3,744 7.3 -20.3°
Reaches altitude 10° 17:34:51 10° 319° (NW) 2,849 6.5 -20.7°
Maximum altitude 17:41:33 59° 39° (NE) 1,282 3.9 -21.8°
Enters shadow 17:44:11 39° 99° (E) 1,665 4.2 -22.2°
